K4CRS-13 Weather Reports


time (UTC)temp
C
wind
direction
speed
KPH
gust
KPH
rain 1hr
cm
rain 24hr
cm
rain mn
cm
humidity
%
barometer
mb
20260505112943 11 167 0.0 0.0 0.00 0.00 0.00 93 1047.4
20260505112441 11 176 0.0 0.0 0.00 0.00 0.00 93 1047.4
20260505111938 11 171 0.0 0.0 0.00 0.00 0.00 93 1047.2
20260505111432 11 165 0.0 0.0 0.00 0.00 0.00 93 1047.2
20260505110929 11 145 0.0 0.0 0.00 0.00 0.00 93 1047.0
20260505110426 11 159 0.0 0.0 0.00 0.00 0.00 93 1047.1
20260505101856 12 179 1.6 3.2 0.00 0.00 0.00 91 1046.6
20260505101351 12 176 1.6 3.2 0.00 0.00 0.00 91 1046.7
20260505100847 12 177 1.6 3.2 0.00 0.00 0.00 91 1046.9
20260505100344 12 188 3.2 3.2 0.00 0.00 0.00 91 1046.8
20260505095840 12 151 1.6 3.2 0.00 0.00 0.00 92 1046.6
20260505095338 11 170 1.6 3.2 0.00 0.00 0.00 93 1046.6
20260505094833 11 184 3.2 3.2 0.00 0.00 0.00 93 1046.4
20260505094331 11 180 1.6 3.2 0.00 0.00 0.00 93 1046.8
20260505093826 11 145 0.0 1.6 0.00 0.00 0.00 93 1046.8
20260505093324 11 153 0.0 1.6 0.00 0.00 0.00 93 1046.5
20260505092820 11 179 1.6 3.2 0.00 0.00 0.00 94 1046.8
20260505092319 11 177 0.0 1.6 0.00 0.00 0.00 94 1046.8
20260505091816 11 166 0.0 0.0 0.00 0.00 0.00 94 1046.6
20260505091314 11 154 0.0 0.0 0.00 0.00 0.00 94 1047.0
20260505090811 11 156 0.0 0.0 0.00 0.00 0.00 93 1046.8
20260505090310 11 163 0.0 0.0 0.00 0.00 0.00 94 1046.7
20260505085806 11 161 0.0 0.0 0.00 0.00 0.00 94 1046.7
20260505085305 11 172 1.6 3.2 0.00 0.00 0.00 95 1047.0
20260505084801 11 171 1.6 3.2 0.00 0.00 0.00 95 1047.1
20260505084301 11 172 0.0 1.6 0.00 0.00 0.00 95 1047.1
20260505083757 11 158 0.0 0.0 0.00 0.00 0.00 95 1046.8
20260505083254 10 168 1.6 1.6 0.00 0.00 0.00 95 1046.9
20260505082750 10 171 0.0 0.0 0.00 0.00 0.00 95 1046.9
20260505082247 10 168 0.0 0.0 0.00 0.00 0.00 95 1047.0
20260505081743 10 171 0.0 1.6 0.00 0.00 0.00 95 1047.1
20260505081240 10 167 0.0 0.0 0.00 0.00 0.00 94 1047.3
20260505080737 10 170 0.0 0.0 0.00 0.00 0.00 94 1047.3
20260505080233 10 160 0.0 0.0 0.00 0.00 0.00 94 1047.0
20260505075729 10 163 0.0 0.0 0.00 0.00 0.00 94 1047.4
20260505075226 10 164 0.0 0.0 0.00 0.00 0.00 94 1047.2
20260505074724 10 170 0.0 0.0 0.00 0.00 0.00 94 1047.4
20260505074220 11 159 0.0 0.0 0.00 0.00 0.00 94 1047.2
20260505073718 10 159 0.0 0.0 0.00 0.00 0.00 94 1047.3
20260505073216 10 159 0.0 0.0 0.00 0.00 0.00 94 1047.4
20260505072711 10 159 0.0 0.0 0.00 0.00 0.00 93 1047.3
20260505072208 10 159 1.6 1.6 0.00 0.00 0.00 93 1047.4
20260505071703 10 160 0.0 1.6 0.00 0.00 0.00 93 1047.5
20260505071201 10 170 0.0 0.0 0.00 0.00 0.00 93 1047.5
20260505070659 10 167 0.0 1.6 0.00 0.00 0.00 93 1047.5
20260505070154 11 164 0.0 0.0 0.00 0.00 0.00 92 1047.4
20260505065650 11 163 0.0 0.0 0.00 0.00 0.00 92 1047.6
20260505065148 11 164 0.0 0.0 0.00 0.00 0.00 92 1047.4
20260505064644 11 159 0.0 0.0 0.00 0.00 0.00 92 1047.6
20260505064142 11 156 0.0 0.0 0.00 0.00 0.00 91 1047.3
20260505063640 11 167 0.0 0.0 0.00 0.00 0.00 91 1047.2
20260505063136 11 170 0.0 0.0 0.00 0.00 0.00 91 1047.4
20260505062633 11 157 0.0 1.6 0.00 0.00 0.00 91 1047.6
20260505062129 11 162 0.0 0.0 0.00 0.00 0.00 90 1047.7
20260505061627 11 144 1.6 1.6 0.00 0.00 0.00 90 1047.5
20260505061125 11 146 0.0 1.6 0.00 0.00 0.00 90 1047.6
20260505060622 11 154 0.0 0.0 0.00 0.00 0.00 89 1047.7
20260505060119 11 148 0.0 1.6 0.00 0.00 0.00 89 1047.6
20260505055614 11 138 1.6 1.6 0.00 0.00 0.00 89 1047.6
20260505055111 12 156 0.0 1.6 0.00 0.00 0.00 88 1047.9
20260505054608 12 149 0.0 0.0 0.00 0.00 0.00 88 1047.9
20260505054106 12 146 0.0 0.0 0.00 0.00 0.00 88 1047.6
20260505053603 12 153 0.0 1.6 0.00 0.00 0.00 88 1048.0
20260505053059 12 147 0.0 1.6 0.00 0.00 0.00 87 1048.0
20260505052556 12 160 0.0 0.0 0.00 0.00 0.00 88 1047.7
20260505052054 12 159 0.0 0.0 0.00 0.00 0.00 88 1047.8
20260505051551 12 159 0.0 0.0 0.00 0.00 0.00 88 1047.7
20260505051049 12 162 0.0 0.0 0.00 0.00 0.00 88 1047.8
20260505050547 12 165 0.0 0.0 0.00 0.00 0.00 88 1047.6
20260505041514 12 172 0.0 0.0 0.00 0.00 0.00 85 1047.7
20260505041012 12 168 0.0 0.0 0.00 0.00 0.00 84 1047.6
20260505040509 13 150 0.0 1.6 0.00 0.00 0.00 84 1047.9
20260505040006 13 157 0.0 0.0 0.00 0.00 0.00 84 1047.6
20260505035502 13 155 0.0 1.6 0.00 0.00 0.00 84 1047.6
20260505034959 13 174 0.0 0.0 0.00 0.00 0.00 84 1047.6
20260505034455 13 156 0.0 0.0 0.00 0.00 0.00 84 1047.7
20260505033953 13 168 0.0 1.6 0.00 0.00 0.00 84 1047.7
20260505033449 13 140 1.6 1.6 0.00 0.00 0.00 84 1047.9
20260505032948 13 165 0.0 0.0 0.00 0.00 0.00 84 1047.7
20260505032445 13 166 0.0 0.0 0.00 0.00 0.00 83 1047.8
20260505031941 13 159 0.0 0.0 0.00 0.00 0.00 84 1047.9
20260505031438 13 161 0.0 0.0 0.00 0.00 0.00 84 1047.4
20260505030935 13 169 0.0 0.0 0.00 0.00 0.00 84 1047.7
20260505030431 13 160 0.0 0.0 0.00 0.00 0.00 84 1047.6
20260505025926 13 158 0.0 1.6 0.00 0.00 0.00 83 1047.7
20260505025424 13 169 0.0 0.0 0.00 0.00 0.00 83 1047.4
20260505024923 14 158 0.0 0.0 0.00 0.00 0.00 83 1047.6
20260505024419 14 153 0.0 1.6 0.00 0.00 0.00 83 1047.3
20260505023916 14 153 0.0 0.0 0.00 0.00 0.00 83 1047.6
20260505023413 14 170 0.0 0.0 0.00 0.00 0.00 83 1047.5
20260505022911 14 171 0.0 0.0 0.00 0.00 0.00 83 1047.3
20260505022408 14 143 0.0 1.6 0.00 0.00 0.00 83 1047.5
20260505021905 14 173 0.0 0.0 0.00 0.00 0.00 82 1047.3
20260505021401 15 170 0.0 0.0 0.00 0.00 0.00 81 1047.4
20260505020857 15 164 0.0 0.0 0.00 0.00 0.00 81 1047.3
20260505020353 15 153 0.0 0.0 0.00 0.00 0.00 80 1047.4
20260505015850 15 163 0.0 0.0 0.00 0.00 0.00 80 1047.2
20260505015347 15 158 0.0 0.0 0.00 0.00 0.00 79 1047.4
20260505014844 15 164 0.0 0.0 0.00 0.00 0.00 78 1047.4
20260505014341 16 159 0.0 0.0 0.00 0.00 0.00 77 1047.3
20260505013838 16 156 0.0 1.6 0.00 0.00 0.00 75 1047.3
20260505013335 16 166 0.0 0.0 0.00 0.00 0.00 74 1047.1
20260505012833 16 163 0.0 0.0 0.00 0.00 0.00 74 1047.2
20260505012331 16 166 0.0 0.0 0.00 0.00 0.00 73 1047.1
20260505011826 17 168 0.0 0.0 0.00 0.00 0.00 71 1047.0
20260505011324 17 168 0.0 1.6 0.00 0.00 0.00 70 1047.2
20260505010819 17 165 0.0 0.0 0.00 0.00 0.00 69 1047.1
20260505010315 17 149 0.0 0.0 0.00 0.00 0.00 67 1047.0
20260505005812 17 156 0.0 0.0 0.00 0.00 0.00 67 1047.2
20260505005309 17 162 0.0 0.0 0.00 0.00 0.00 66 1047.2
20260505004807 18 166 0.0 0.0 0.00 0.00 0.00 65 1046.8
20260505004302 18 163 0.0 0.0 0.00 0.00 0.00 64 1047.0
20260505003800 19 173 0.0 0.0 0.00 0.00 0.00 63 1046.9
20260505003257 19 171 0.0 0.0 0.00 0.00 0.00 60 1046.9
20260505002754 20 171 0.0 0.0 0.00 0.00 0.00 58 1046.8
20260505002251 21 169 0.0 0.0 0.00 0.00 0.00 56 1046.9
20260505001749 21 169 0.0 1.6 0.00 0.00 0.00 55 1046.8
20260505001246 21 170 1.6 1.6 0.00 0.00 0.00 53 1046.8
20260505000743 22 182 3.2 3.2 0.00 0.00 0.00 51 1046.8
20260505000241 22 176 1.6 3.2 0.00 0.00 0.00 50 1046.8
20260504235737 23 167 1.6 3.2 0.00 0.00 0.00 48 1046.6
20260504235233 23 184 3.2 4.8 0.00 0.00 0.00 47 1046.9
20260504234730 23 181 4.8 8.0 0.00 0.00 0.00 46 1046.7
20260504234228 23 182 4.8 8.0 0.00 0.00 0.00 46 1046.9
20260504233724 23 171 0.0 4.8 0.00 0.00 0.00 45 1047.0
20260504233220 23 181 3.2 8.0 0.00 0.00 0.00 45 1046.9
20260504232717 23 181 3.2 4.8 0.00 0.00 0.00 45 1046.8
20260504232214 24 181 4.8 4.8 0.00 0.00 0.00 44 1046.8
20260504231711 24 193 4.8 8.0 0.00 0.00 0.00 44 1047.1
20260504231207 24 180 4.8 4.8 0.00 0.00 0.00 43 1046.9
20260504230703 24 179 6.4 8.0 0.00 0.00 0.00 42 1046.8
20260504230202 24 196 3.2 8.0 0.00 0.00 0.00 42 1047.0
20260504225700 25 175 4.8 4.8 0.00 0.00 0.00 44 1047.0
20260504225155 25 156 4.8 8.0 0.00 0.00 0.00 42 1047.1
20260504224653 25 189 3.2 3.2 0.00 0.00 0.00 43 1047.0
20260504224150 24 180 4.8 8.0 0.00 0.00 0.00 43 1047.2
20260504223647 24 167 3.2 8.0 0.00 0.00 0.00 42 1047.1
20260504223142 25 185 6.4 8.0 0.00 0.00 0.00 43 1047.1
20260504222640 25 178 6.4 11.3 0.00 0.00 0.00 42 1047.0
20260504222136 25 183 4.8 8.0 0.00 0.00 0.00 42 1047.0
20260504221634 25 165 3.2 8.0 0.00 0.00 0.00 41 1047.3
20260504221131 25 141 1.6 3.2 0.00 0.00 0.00 42 1047.3
20260504220627 25 186 4.8 9.7 0.00 0.00 0.00 42 1047.3
20260504220125 25 163 4.8 8.0 0.00 0.00 0.00 43 1047.2
20260504215621 25 185 4.8 8.0 0.00 0.00 0.00 43 1047.3
20260504215119 25 181 8.0 11.3 0.00 0.00 0.00 43 1047.5
20260504214614 25 203 4.8 8.0 0.00 0.00 0.00 45 1047.5
20260504214111 26 192 4.8 4.8 0.00 0.00 0.00 44 1047.4
20260504213607 25 179 1.6 8.0 0.00 0.00 0.00 43 1047.4
20260504213104 25 190 4.8 12.9 0.00 0.00 0.00 41 1047.5
20260504212600 26 203 4.8 9.7 0.00 0.00 0.00 42 1047.2
20260504212058 26 186 3.2 4.8 0.00 0.00 0.00 42 1047.5
20260504211554 26 196 4.8 11.3 0.00 0.00 0.00 41 1047.6
20260504211051 26 197 3.2 3.2 0.00 0.00 0.00 42 1047.3
20260504210549 26 197 4.8 8.0 0.00 0.00 0.00 42 1047.5
20260504210045 26 182 3.2 3.2 0.00 0.00 0.00 42 1047.6
20260504205543 26 143 4.8 8.0 0.00 0.00 0.00 42 1047.7
20260504205041 26 180 6.4 11.3 0.00 0.00 0.00 39 1047.7
20260504204538 26 156 4.8 9.7 0.00 0.00 0.00 40 1048.0
20260504204037 26 196 1.6 3.2 0.00 0.00 0.00 41 1047.9
20260504203535 26 150 8.0 12.9 0.00 0.00 0.00 40 1048.1
20260504203032 26 173 6.4 11.3 0.00 0.00 0.00 39 1048.2
20260504202527 26 175 6.4 9.7 0.00 0.00 0.00 40 1048.1
20260504202025 26 181 6.4 8.0 0.00 0.00 0.00 39 1048.2
20260504201521 26 193 6.4 9.7 0.00 0.00 0.00 40 1048.3
20260504201020 26 202 3.2 8.0 0.00 0.00 0.00 42 1048.7
20260504200515 26 195 3.2 11.3 0.00 0.00 0.00 39 1048.2
20260504200012 26 247 4.8 11.3 0.00 0.00 0.00 38 1048.3
20260504195508 27 199 8.0 12.9 0.00 0.00 0.00 39 1048.3
20260504195005 27 180 4.8 4.8 0.00 0.00 0.00 40 1048.4
20260504194501 26 193 1.6 4.8 0.00 0.00 0.00 43 1048.9
20260504193957 26 172 4.8 8.0 0.00 0.00 0.00 39 1048.7
20260504193454 26 191 1.6 3.2 0.00 0.00 0.00 41 1048.7
20260504192953 26 193 3.2 3.2 0.00 0.00 0.00 44 1048.9
20260504192450 27 163 0.0 1.6 0.00 0.00 0.00 45 1048.9
20260504191949 26 195 4.8 4.8 0.00 0.00 0.00 43 1048.7
20260504191446 26 199 4.8 4.8 0.00 0.00 0.00 42 1048.9
20260504190941 26 211 1.6 3.2 0.00 0.00 0.00 46 1048.9
20260504190438 26 218 1.6 8.0 0.00 0.00 0.00 45 1048.7
20260504185934 26 197 3.2 4.8 0.00 0.00 0.00 45 1049.0
20260504185432 25 176 4.8 4.8 0.00 0.00 0.00 44 1049.3
20260504184927 25 203 8.0 12.9 0.00 0.00 0.00 44 1049.2
20260504184423 26 230 4.8 8.0 0.00 0.00 0.00 43 1049.2
20260504183920 26 168 3.2 8.0 0.00 0.00 0.00 47 1049.1
20260504183417 25 179 0.0 4.8 0.00 0.00 0.00 49 1049.5
20260504182915 25 186 4.8 4.8 0.00 0.00 0.00 47 1049.4
20260504182411 25 188 6.4 9.7 0.00 0.00 0.00 50 1049.4
20260504181908 25 171 4.8 4.8 0.00 0.00 0.00 53 1049.4
20260504181406 23 172 1.6 3.2 0.00 0.00 0.00 51 1049.6
20260504180904 23 260 8.0 8.0 0.00 0.00 0.00 52 1049.7
20260504180403 23 155 4.8 4.8 0.00 0.00 0.00 52 1049.7
20260504175901 25 255 11.3 14.5 0.00 0.00 0.00 45 1049.7
20260504175357 25 191 3.2 8.0 0.00 0.00 0.00 47 1049.9
20260504174855 25 189 1.6 8.0 0.00 0.00 0.00 49 1050.0
20260504174352 25 186 6.4 8.0 0.00 0.00 0.00 49 1049.9
20260504173849 24 187 1.6 3.2 0.00 0.00 0.00 52 1050.0
20260504173346 25 171 8.0 9.7 0.00 0.00 0.00 48 1050.2
20260504172843 25 193 3.2 3.2 0.00 0.00 0.00 52 1050.0
20260504172339 24 178 0.0 4.8 0.00 0.00 0.00 54 1050.3
20260504171835 24 218 11.3 17.7 0.00 0.00 0.00 49 1050.5
20260504171332 24 178 4.8 8.0 0.00 0.00 0.00 50 1050.6
20260504170830 25 180 1.6 9.7 0.00 0.00 0.00 50 1050.3
20260504170326 25 187 3.2 4.8 0.00 0.00 0.00 53 1050.5
20260504160245 22 229 1.6 8.0 0.00 0.00 0.00 55 1051.4
20260504150710 21 164 1.6 3.2 0.00 0.00 0.00 58 1051.6
20260504150207 21 180 1.6 8.0 0.00 0.00 0.00 59 1051.7
20260504141136 20 158 4.8 4.8 0.00 0.00 0.00 63 1051.7
20260504140633 19 180 1.6 3.2 0.00 0.00 0.00 62 1051.5
20260504140128 18 180 3.2 3.2 0.00 0.00 0.00 64 1051.8
20260504130556 15 159 0.0 0.0 0.00 0.00 0.00 83 1052.0